Preview of NWS' New Version of Forecast
This preview is not operational and should not be used for support decisions.

Regional Weather Roundup (RWR)

Issued by National Weather Service (NWS)

                            
000
ASCA42 TJSJ 161710
RWRPR 
PUERTO RICO/U.S. VIRGIN ISLANDS HOURLY WEATHER ROUNDUP
NATIONAL WEATHER SERVICE SAN JUAN PR
100 PM AST SAT FEB 16 2019

PRZ001>002-007>008-010-161800-
PUERTO RICO
  
CITY           SKY/WX    TMP DP  RH WIND       PRES   REMARKS
SAN JUAN LMM   MOSUNNY   88  70  55 SE10      30.01F HX  92           
AGUADILLA      SUNNY     82 N/A N/A NE8       30.03F                  
CEIBA          MOSUNNY   79  73  83 S12       30.04F                  
$$

VIZ001>002-161800-
U.S. VIRGIN ISLANDS
  
CITY           SKY/WX    TMP DP  RH WIND       PRES   REMARKS
CHARLOTTE AMA  MOSUNNY   82  73  74 SE12      30.02F                  
CHRISTIANSTED  MOSUNNY   86  73  66 SE13      30.04F HX  93           
$$

HOURLY WEATHER ROUNDUP FOR THE NEWS MEDIA
  
CITY           SKY/WX    TMP DP  RH WIND       PRES   REMARKS
ORLANDO        FAIR      76  59  55 SW16      29.90F                  
NEW YORK       FAIR      41  19  41 NW13      29.88F                  
NEWARK         FAIR      42  16  34 NW12G22   29.87F                  
CHICAGO        CLOUDY    25  17  72 N6        30.12R WCI  18          
HARTFORD       FAIR      40  22  48 NW8G17    29.76F WCI  34          
BOSTON         FAIR      42  19  39 W12       29.77F                  
DALLAS         LGT RAIN  37  33  85 VRB6      29.91  WCI  32          
PHILADELPHIA   FAIR      42  19  39 N12G20    29.91F                  
LOS ANGELES    MOSUNNY   53  36  52 N3        30.17S                  
WASHINGTON DC  PTSUNNY   37  19  48 N13       29.94F WCI  29